Home   Weather   Yokosuka   Past weeks
Flag for Japan

Past Weather in Yokosuka, Japan — Yesterday and Last 2 Weeks

Now
63 °F

Scattered clouds.


Feels Like: 63 °F
Forecast: 50 / 44 °F
Wind: 8 mph from Northeast

Location: Tokyo International Airport

Current Time: Mar 22, 2019 at 11:26:06 am

Latest Report: Mar 22, 2019 at 10:30 am


Visibility: N/A

Pressure: 29.56 "Hg

Humidity: 77%

Dew Point: 55 °F

Location of YokosukaLocation

Past Weather in Yokosuka — Graph

°F

Yokosuka Temperature Yesterday

Maximum temperature yesterday: 70 °F (at 12:30 pm)
Minimum temperature yesterday: 55 °F (at 4:00 am)
Average temperature yesterday: 63 °F

High & Low Weather Summary for the Past Weeks

 TemperatureHumidityPressure
High70 °F (Mar 21, 12:30 pm)100% (Mar 11, 3:30 am)30.33 "Hg (Mar 11, 3:30 am)
Low41 °F (Mar 8, 4:30 am)23% (Mar 9, 4:00 pm)29.27 "Hg (Mar 11, 1:00 pm)
Average53 °F57%29.89 "Hg
* Reported Mar 7 9:00 am — Mar 22 9:30 am, Yokosuka. Weather by CustomWeather, © 2019

Note: Actual official high and low records may vary slightly from our data, if they occured in-between our weather recording intervals... More about our weather records

Advertising

Yokosuka Weather History for the Previous 24 Hours

Scroll right to see more
 ConditionsComfort  
Time TempWeatherWind HumidityBarometerVisibility
9:30 am
Fri, Mar 22
64 °FScattered clouds.14 mph73%29.56 "HgN/A
9:00 am63 °FPassing clouds.9 mph73%29.53 "HgN/A
8:30 am63 °FScattered clouds.10 mph73%29.53 "HgN/A
8:00 am63 °FScattered clouds.12 mph73%29.53 "HgN/A
7:30 am63 °FScattered clouds.10 mph68%29.53 "HgN/A
7:00 am63 °FPartly sunny.17 mph59%29.50 "HgN/A
6:30 am61 °FPartly sunny.10 mph72%29.50 "HgN/A
6:00 am61 °FBroken clouds.7 mph77%29.50 "HgN/A
5:30 am61 °FPassing clouds.7 mph88%29.50 "HgN/A
5:00 am59 °FPassing clouds.3 mph94%29.50 "HgN/A
4:30 am63 °FPassing clouds.6 mph83%29.50 "HgN/A
4:00 am63 °FPassing clouds.7 mph83%29.50 "HgN/A
3:30 am64 °FPassing clouds.13 mph83%29.50 "HgN/A
3:00 am64 °FPartly cloudy.13 mph83%29.50 "HgN/A
2:30 am66 °FPartly cloudy.12 mph83%29.50 "HgN/A
2:00 am66 °FPassing clouds.14 mph83%29.50 "HgN/A
1:30 am66 °FPassing clouds.16 mph78%29.50 "HgN/A
1:00 am66 °FPassing clouds.20 mph83%29.50 "HgN/A
12:30 am66 °FPassing clouds.16 mph83%29.53 "HgN/A
12:00 am66 °FPassing clouds.14 mph83%29.53 "HgN/A
11:30 pm
Thu, Mar 21
64 °FPassing clouds.18 mph88%29.56 "HgN/A
11:00 pm64 °FPassing clouds.21 mph88%29.56 "HgN/A
10:30 pm64 °FPassing clouds.24 mph88%29.56 "HgN/A
10:00 pm64 °FPassing clouds.23 mph83%29.59 "HgN/A
9:30 pm64 °FPassing clouds.24 mph88%29.59 "HgN/A
9:00 pm64 °FPassing clouds.24 mph83%29.59 "HgN/A
8:30 pm64 °FPartly cloudy.26 mph83%29.59 "HgN/A
8:00 pm64 °FPassing clouds.25 mph83%29.59 "HgN/A
7:30 pm64 °FPassing clouds.24 mph83%29.59 "HgN/A
7:00 pm64 °FPassing clouds.23 mph78%29.59 "HgN/A
6:30 pm64 °FPassing clouds.23 mph78%29.59 "HgN/A
6:05 pm64 °FPassing clouds.23 mph78%29.59 "HgN/A
5:30 pm66 °FPassing clouds.22 mph73%29.59 "HgN/A
5:00 pm66 °FPassing clouds.24 mph68%29.59 "HgN/A
4:30 pm66 °FScattered clouds.24 mph73%29.62 "HgN/A
4:03 pm68 °FPassing clouds.25 mph69%29.62 "HgN/A
3:40 pm68 °FPassing clouds.28 mph64%29.62 "HgN/A
3:30 pm68 °FPassing clouds.26 mph64%29.65 "HgN/A
3:01 pm68 °FPassing clouds.24 mph60%29.65 "HgN/A
3:00 pm68 °FPassing clouds.23 mph60%29.65 "HgN/A
2:30 pm68 °FScattered clouds.25 mph60%29.65 "HgN/A
2:00 pm68 °FScattered clouds.28 mph60%29.68 "HgN/A
1:30 pm70 °FScattered clouds.24 mph57%29.68 "HgN/A
1:00 pm68 °FScattered clouds.29 mph60%29.71 "HgN/A
12:30 pm70 °FPartly sunny.18 mph57%29.74 "HgN/A
12:17 pm66 °FPartly sunny.17 mph68%29.74 "HgN/A
11:30 am66 °FBroken clouds.16 mph64%29.77 "HgN/A
11:00 am66 °FLight rain. Broken clouds.20 mph68%29.77 "HgN/A
Weather by CustomWeather, © 2019

See weather overview